Wind_Speed
6 4 3 3 3 3 3 3 2 2 2 2 2 2 2 3 3 4 5 5 5 5 6 7 8 8 8 9 9 10 9 9 8 9 9 10 10 9 10 9 9 9 9
4 4 4 4 4 4 3 3 3 3 3 3 3 2 3 3 4 4 6 6 6 6 7 7 8 8 9 11 11 10 10 10 10 10 11 11 10 10 10 10 10 10 10
5 4 4 4 4 4 4 3 3 3 3 3 3 3 4 4 5 6 6 6 7 7 8 8 8 8 9 10 10 11 11 10 11 12 13 13 12 12 12 12 11 11 11
4 4 4 4 4 4 4 4 4 4 4 3 4 4 5 6 6 7 7 8 8 8 8 9 9 9 10 10 10 10 10 11 11 12 12 13 13 12 12 12 12 12 12
4 4 4 4 4 4 4 4 4 5 4 4 5 5 6 7 7 8 8 8 8 9 9 9 10 10 10 10 10 11 11 11 12 12 13 13 13 13 13 13 13 12 13
5 5 5 5 5 5 5 5 5 5 5 5 6 7 7 8 8 8 9 9 8 9 9 10 11 10 10 11 11 12 12 12 13 13 14 14 15 15 15 15 14 15 15
6 6 5 5 6 5 5 5 5 5 6 6 7 7 7 8 8 9 9 9 9 9 9 10 11 11 11 11 11 12 12 12 13 13 13 14 15 15 15 15 15 16 16
7 6 6 6 7 7 7 6 6 6 7 7 7 8 8 9 9 9 9 10 10 10 11 11 12 11 11 11 12 12 12 12 12 13 13 14 15 14 14 15 15 15 16
7 7 6 6 7 7 7 7 7 7 7 8 8 8 9 9 10 10 10 11 11 12 12 12 11 11 11 12 12 12 12 12 12 12 12 13 13 13 13 14 15 15 16
6 6 6 7 7 7 8 8 7 7 8 9 9 9 10 11 12 12 12 12 12 12 12 12 12 12 12 13 13 13 13 13 13 13 12 12 13 13 14 14 15 15 14
6 6 6 7 7 8 8 9 8 8 8 9 10 11 12 12 13 12 12 12 12 12 12 12 12 13 13 13 13 12 12 12 12 12 12 12 12 12 12 13 13 13 13
6 6 7 7 7 8 8 9 10 10 10 11 11 12 13 13 14 14 13 13 13 13 13 13 13 14 14 14 13 13 13 13 13 13 12 12 13 13 13 14 14 14 14
6 7 7 8 8 9 9 9 10 11 11 12 13 13 14 15 16 16 15 14 14 15 15 14 14 15 14 15 14 14 14 14 14 14 14 13 13 14 14 14 14 14 14
7 8 8 8 9 9 10 10 11 12 12 13 14 15 15 16 17 17 17 16 16 16 16 16 16 16 15 15 15 15 15 15 14 14 14 14 13 14 14 14 14 14 15
8 8 9 9 9 9 10 11 11 12 13 14 15 15 16 17 18 18 17 17 17 17 17 17 17 17 16 16 16 16 16 15 15 15 15 14 14 14 14 14 15 14 15
9 9 9 10 10 10 11 12 12 13 14 15 16 16 17 17 19 19 18 18 17 17 17 17 18 18 17 17 16 16 16 16 16 15 15 15 15 15 15 16 16 15 16
10 10 10 10 11 12 12 13 13 14 15 15 16 17 17 18 19 18 18 18 18 17 18 18 18 18 18 17 17 16 16 16 15 15 15 16 16 15 15 16 16 16 16
11 11 10 11 12 12 13 13 14 15 15 16 17 18 18 19 19 19 18 18 18 18 18 18 18 18 18 17 17 17 17 17 16 15 16 16 16 16 17 17 17 17 17
11 11 11 12 13 13 14 14 15 15 16 16 17 18 19 20 20 19 19 19 19 19 19 19 19 18 18 18 17 17 17 17 17 17 17 16 17 17 18 18 18 18 19
12 12 12 12 13 14 15 15 16 16 16 17 18 19 19 20 20 20 20 20 19 19 19 19 19 18 18 18 18 18 18 18 17 18 17 17 17 18 18 19 19 20 20
13 13 13 13 14 15 16 17 17 18 18 19 20 20 20 20 20 20 20 20 20 20 20 20 20 20 19 19 19 19 19 19 19 19 18 18 18 18 19 20 21 21 21
14 14 15 15 15 16 17 18 18 19 19 20 21 21 21 21 21 21 21 21 20 20 21 21 21 21 21 21 21 20 20 20 20 20 20 20 20 20 20 21 21 22 22
16 16 16 16 17 17 18 18 19 20 21 22 22 22 22 21 21 22 22 22 22 21 22 22 22 23 23 22 22 21 21 21 22 21 22 21 22 22 22 22 23 23 23
17 17 17 17 17 18 19 19 20 21 22 22 23 23 23 23 23 23 23 23 23 23 23 23 24 24 24 24 23 22 22 23 23 23 23 23 23 23 23 24 24 25 25
19 19 19 18 19 19 20 21 22 22 23 23 24 24 24 24 24 24 24 25 24 24 25 25 25 25 25 24 24 23 23 23 23 24 24 24 25 25 25 25 25 26 26
21 20 21 21 21 22 22 23 24 24 25 25 25 25 26 26 25 25 25 26 26 26 26 26 26 25 25 24 24 24 24 24 24 25 25 26 26 26 25 26 26 27 28
Wind_Direction
97 89 90 81 85 77 70 69 64 32 11 355 352 319 291 283 299 310 311 310 296 298 298 294 290 286 282 281 281 278 274 273 274 270 269 268 269 268 266 267 267 270 269
88 82 74 68 66 69 65 56 37 20 12 4 357 335 302 301 314 316 317 318 312 307 298 295 299 291 283 284 283 284 280 270 270 273 271 269 268 264 262 264 263 266 267
74 66 63 54 49 53 54 50 32 16 13 6 359 354 346 332 326 313 316 320 315 310 305 301 299 294 290 293 292 287 284 277 274 276 276 273 269 266 265 264 265 266 269
59 52 45 40 39 39 40 32 21 7 360 352 344 338 337 333 325 323 319 316 315 313 312 308 302 299 296 296 295 290 288 285 282 280 280 277 273 271 270 266 265 268 271
46 45 40 35 26 27 23 15 11 8 2 352 348 345 338 329 328 327 326 322 319 317 311 307 305 301 297 295 296 296 289 289 288 285 281 279 275 276 274 274 271 269 271
47 50 40 31 25 19 12 8 2 0 358 349 341 338 337 331 328 327 327 324 324 318 313 305 302 301 301 298 296 297 293 292 291 288 284 280 275 275 276 274 275 274 273
51 47 40 34 26 19 12 6 1 1 351 345 341 336 332 329 328 326 323 320 319 316 313 311 307 301 303 302 298 297 294 293 295 291 285 285 281 280 277 273 273 275 275
54 51 46 39 31 26 19 14 8 1 351 345 341 341 335 332 330 327 324 322 319 314 311 309 308 304 305 303 302 301 300 298 296 293 290 286 285 282 280 278 275 274 276
48 44 38 31 27 22 14 5 1 357 353 349 344 340 334 332 332 329 325 325 322 318 315 311 310 309 308 306 302 301 301 300 298 298 296 291 289 284 280 280 279 278 278
38 30 24 20 17 13 9 3 356 354 350 346 344 341 335 334 333 333 331 327 323 319 317 316 317 313 306 303 302 300 298 299 300 299 299 295 291 288 284 288 285 285 284
30 20 13 10 8 3 1 1 358 354 351 345 341 340 339 337 336 336 335 332 329 326 323 319 317 315 312 307 304 301 300 301 301 299 298 298 297 296 293 295 294 291 287
18 9 4 1 358 355 354 356 355 351 349 345 341 339 337 336 336 336 333 331 328 326 323 319 315 313 311 308 308 306 301 301 300 298 298 299 297 293 291 291 290 289 287
5 0 355 352 352 350 349 347 345 344 343 342 340 338 336 334 333 331 328 327 325 323 321 320 315 312 311 312 308 305 303 303 300 297 297 297 296 293 290 289 287 287 287
357 354 351 347 343 344 343 341 338 337 338 337 337 338 336 334 332 329 326 322 319 318 316 315 313 310 308 308 306 303 301 301 299 298 298 297 296 294 293 292 290 288 285
352 350 349 348 345 343 341 338 337 335 334 333 334 335 333 332 331 330 327 323 318 317 316 313 312 310 308 306 304 303 302 300 299 299 297 297 296 293 291 290 290 291 290
346 345 346 347 345 342 342 340 337 335 335 334 334 334 332 331 332 330 326 323 321 318 315 315 313 310 310 308 306 305 304 302 299 297 295 296 297 296 294 292 291 291 293
341 338 338 336 337 337 338 337 336 336 334 334 334 334 333 331 331 330 328 326 322 319 316 316 314 313 313 311 308 307 306 304 304 300 297 294 294 295 295 294 294 293 293
339 337 334 335 336 336 336 336 334 333 333 333 332 331 331 331 331 330 328 325 321 320 320 320 318 317 315 312 310 308 307 305 304 302 301 298 296 294 294 293 293 293 293
337 337 336 334 334 334 333 332 331 332 331 330 331 330 328 328 328 328 327 326 325 323 322 321 319 318 316 314 313 310 309 307 304 301 300 300 298 296 296 294 293 293 293
330 330 328 330 333 334 333 332 330 329 328 328 329 328 327 326 325 324 324 324 324 323 322 320 319 318 316 313 312 310 308 307 304 301 299 298 298 298 297 296 294 293 292
327 327 326 326 329 329 329 329 329 328 327 326 326 326 325 324 323 323 322 322 322 322 321 320 319 318 315 311 309 308 307 306 305 303 301 299 298 297 296 296 296 295 293
322 324 324 324 325 326 326 327 327 327 327 326 325 323 322 322 322 322 321 320 318 318 318 317 316 315 314 312 308 306 306 306 304 303 302 302 300 298 297 296 295 294 295
318 319 319 319 321 321 322 323 324 324 324 324 324 322 322 321 318 318 318 317 315 314 314 315 314 313 312 311 308 306 306 305 304 304 302 301 301 300 297 296 297 297 296
314 315 317 318 318 319 319 318 318 319 321 322 322 321 320 320 318 316 316 316 314 311 311 312 312 312 310 307 305 305 304 304 304 303 302 301 300 299 297 296 296 297 297
310 310 311 313 314 315 315 316 315 316 317 318 318 319 318 318 317 316 315 314 313 311 309 309 309 310 308 305 304 304 303 304 303 303 301 300 299 298 298 296 296 296 297
309 308 308 310 311 312 312 313 314 314 315 316 316 316 316 315 313 314 315 314 313 311 309 309 309 308 308 307 305 304 304 304 304 304 302 301 300 298 298 297 296 295 296
Height
5884 5884 5884 5885 5885 5886 5886 5886 5886 5886 5886 5886 5886 5886 5886 5886 5886 5886 5886 5886 5886 5886 5885 5885 5885 5885 5884 5884 5884 5884 5883 5883 5883 5883 5883 5883 5882 5882 5882 5882 5882 5882 5883
5886 5886 5886 5886 5886 5886 5886 5887 5887 5887 5886 5886 5886 5886 5886 5886 5886 5886 5886 5886 5885 5885 5884 5884 5884 5883 5883 5882 5882 5881 5881 5881 5881 5881 5880 5880 5880 5880 5880 5880 5880 5880 5880
5887 5887 5887 5887 5887 5887 5887 5887 5887 5887 5887 5886 5886 5886 5886 5885 5886 5885 5885 5885 5884 5883 5883 5882 5882 5881 5881 5880 5880 5879 5879 5878 5878 5878 5878 5878 5878 5877 5877 5877 5877 5877 5878
5888 5888 5888 5888 5888 5888 5887 5887 5887 5887 5887 5887 5887 5886 5886 5885 5885 5884 5884 5884 5883 5882 5881 5881 5880 5879 5879 5878 5878 5877 5877 5876 5876 5875 5875 5875 5875 5875 5875 5874 5875 5875 5875
5889 5889 5889 5889 5888 5888 5888 5888 5887 5887 5887 5887 5887 5886 5886 5885 5884 5884 5883 5882 5881 5881 5880 5879 5878 5878 5877 5876 5876 5875 5874 5874 5873 5873 5872 5872 5872 5872 5872 5872 5871 5871 5872
5890 5890 5890 5889 5889 5889 5888 5888 5888 5888 5887 5887 5886 5886 5885 5885 5884 5883 5882 5881 5880 5879 5878 5877 5877 5876 5875 5874 5873 5872 5871 5871 5870 5870 5869 5869 5869 5868 5869 5868 5868 5868 5868
5891 5891 5891 5890 5890 5889 5889 5888 5888 5887 5887 5887 5886 5885 5884 5884 5883 5882 5881 5880 5879 5878 5877 5876 5875 5874 5873 5872 5871 5870 5869 5868 5867 5866 5866 5865 5865 5865 5865 5864 5864 5864 5864
5892 5892 5891 5891 5890 5890 5889 5888 5888 5887 5887 5886 5886 5885 5884 5883 5882 5880 5879 5879 5878 5876 5875 5874 5873 5872 5871 5870 5868 5867 5867 5866 5864 5863 5863 5862 5861 5861 5861 5861 5860 5860 5860
5893 5893 5893 5892 5891 5890 5889 5889 5888 5887 5886 5886 5885 5884 5883 5882 5880 5879 5878 5877 5875 5874 5873 5872 5870 5869 5868 5867 5866 5865 5864 5862 5861 5860 5859 5858 5858 5857 5857 5857 5857 5856 5856
5894 5894 5893 5893 5892 5891 5890 5889 5888 5887 5886 5885 5884 5883 5882 5881 5879 5878 5877 5875 5874 5872 5870 5869 5868 5866 5865 5864 5863 5862 5861 5859 5858 5857 5856 5855 5855 5854 5854 5854 5853 5852 5852
5895 5895 5894 5893 5892 5891 5890 5889 5888 5887 5886 5885 5883 5882 5881 5879 5878 5877 5875 5874 5872 5870 5868 5867 5866 5864 5863 5861 5860 5859 5857 5856 5855 5854 5853 5852 5852 5851 5851 5850 5849 5849 5848
5896 5895 5894 5893 5892 5891 5890 5889 5888 5886 5885 5884 5883 5881 5880 5878 5877 5875 5873 5872 5870 5868 5866 5865 5863 5862 5860 5858 5857 5855 5854 5853 5852 5851 5850 5849 5848 5848 5847 5846 5845 5845 5844
5896 5895 5894 5893 5892 5891 5890 5889 5888 5886 5885 5883 5882 5880 5879 5877 5875 5873 5871 5869 5868 5866 5864 5862 5861 5859 5857 5855 5854 5852 5851 5850 5849 5848 5847 5846 5845 5844 5843 5843 5842 5841 5840
5896 5895 5894 5893 5892 5890 5889 5888 5887 5886 5884 5882 5881 5879 5877 5875 5873 5871 5869 5867 5866 5864 5862 5860 5858 5856 5854 5852 5851 5849 5848 5847 5845 5844 5843 5842 5841 5841 5840 5839 5838 5837 5836
5896 5895 5893 5892 5891 5890 5888 5887 5886 5884 5883 5881 5880 5877 5875 5873 5871 5869 5867 5864 5863 5861 5859 5857 5855 5853 5851 5849 5848 5846 5845 5843 5842 5840 5839 5838 5837 5836 5836 5835 5834 5833 5832
5895 5894 5893 5891 5890 5889 5888 5886 5885 5883 5882 5880 5878 5876 5874 5871 5869 5866 5864 5861 5859 5858 5856 5854 5852 5850 5848 5846 5844 5842 5841 5839 5838 5837 5835 5834 5833 5832 5831 5830 5829 5828 5827
5894 5893 5892 5891 5889 5888 5887 5885 5884 5882 5880 5878 5876 5874 5871 5869 5867 5864 5861 5859 5856 5854 5852 5850 5848 5846 5844 5842 5840 5839 5837 5835 5834 5833 5831 5830 5829 5828 5827 5826 5825 5824 5823
5893 5892 5890 5889 5888 5887 5885 5884 5882 5880 5878 5876 5874 5872 5869 5866 5864 5861 5859 5856 5854 5851 5849 5847 5845 5842 5840 5838 5837 5835 5833 5831 5830 5828 5827 5826 5824 5823 5822 5821 5820 5819 5818
5892 5890 5889 5888 5886 5885 5884 5882 5880 5878 5876 5874 5872 5869 5867 5864 5861 5859 5856 5854 5851 5848 5846 5844 5842 5839 5837 5835 5833 5831 5829 5827 5826 5824 5823 5821 5820 5819 5817 5816 5815 5814 5812
5891 5889 5888 5886 5885 5883 5882 5880 5878 5876 5873 5871 5869 5867 5864 5861 5859 5856 5853 5850 5848 5845 5843 5840 5838 5836 5833 5831 5829 5827 5825 5823 5822 5820 5818 5817 5815 5814 5812 5811 5809 5808 5807
5889 5887 5886 5884 5883 5881 5879 5877 5875 5873 5871 5868 5866 5863 5861 5858 5855 5852 5850 5847 5844 5842 5839 5837 5834 5832 5830 5827 5825 5823 5821 5819 5817 5815 5813 5812 5811 5809 5807 5805 5803 5802 5801
5887 5885 5884 5882 5880 5878 5877 5875 5872 5870 5868 5865 5863 5860 5857 5854 5851 5849 5846 5843 5841 5838 5835 5833 5830 5827 5825 5823 5820 5818 5816 5814 5812 5810 5808 5807 5805 5803 5801 5799 5797 5796 5794
5885 5883 5881 5879 5878 5876 5874 5872 5870 5867 5864 5862 5859 5856 5853 5850 5847 5844 5841 5839 5836 5833 5831 5828 5826 5823 5820 5817 5815 5813 5811 5809 5807 5805 5803 5801 5799 5797 5795 5793 5791 5789 5787
5882 5880 5878 5876 5875 5873 5871 5868 5866 5864 5861 5858 5855 5852 5849 5846 5843 5840 5837 5834 5831 5828 5826 5823 5820 5818 5815 5812 5810 5808 5805 5803 5801 5799 5797 5795 5793 5791 5789 5786 5784 5782 5780
5878 5876 5874 5873 5871 5869 5867 5864 5862 5859 5857 5854 5851 5847 5844 5841 5838 5835 5832 5829 5826 5823 5820 5817 5815 5811 5808 5806 5803 5801 5799 5797 5795 5792 5790 5788 5786 5784 5782 5780 5777 5775 5773
5873 5872 5870 5868 5866 5864 5862 5859 5857 5854 5852 5849 5846 5842 5839 5836 5833 5830 5827 5824 5821 5817 5814 5811 5809 5806 5802 5800 5797 5795 5793 5791 5788 5786 5783 5781 5778 5776 5774 5772 5770 5767 5765